Location: Home
(42.5358°N, 72.7383°W)
Time: 06:55:52
(UTC-05:00)

Explorer 11/Cluster Stage 4 - Pass Details

Date: 03 December 2021
Orbit: 467 x 1255 km, 28.8° (Epoch: 25 January)

Event Time Altitude Azimuth Distance (km) Brightness Sun altitude
Rises 03:37:17 0° 242° (WSW) 3,713 - -37.2°
Reaches altitude 10° 03:40:13 10° 231° (SW) 2,880 - -36.7°
Maximum altitude 03:46:12 28° 176° (S) 2,021 - -35.6°
Exits shadow 03:46:38 28° 170° (S) 2,037 8.6 -35.5°
Drops below altitude 10° 03:52:47 10° 121° (ESE) 3,197 10.3 -34.4°
Sets 03:56:13 0° 111° (ESE) 4,190 11.2 -33.8°
